Location: Brabourne
(51.1333°N, 1.0000°E)
Time: 21:00:25
(UTC+00:00)

USA 307 - Pass Details

Date: 20 June 2021
Orbit: 565 x 576 km, 54.0° (Epoch: 17 July)

Event Time Altitude Azimuth Distance (km) Brightness Sun altitude
Exits shadow 02:13:23 13° 220° (SW) 1,674 4.6 -9.7°
Maximum altitude 02:16:58 49° 147° (SSE) 735 3.3 -9.4°
Drops below altitude 10° 02:21:04 10° 72° (ENE) 1,868 6.3 -9.0°
Sets 02:23:22 0° 67° (ENE) 2,767 7.4 -8.8°
